CW5469 Weather Reports


Display with metric or nautical units.
time (UTC)temp
F
wind
direction
speed
MPH
gust
MPH
rain 1hr
in
rain 24hr
in
rain mn
in
humidity
%
barometer
mb
20260505003955 42 0 0.0 0.0 0.00 0.02 0.02 79 1014.2
20260505002954 42 107 1.0 3.0 0.00 0.02 0.02 76 1014.4
20260505001954 42 127 1.0 5.0 0.00 0.02 0.02 77 1014.5
20260505000954 42 0 0.0 0.0 0.00 0.02 0.02 78 1014.6
20260504235954 42 123 2.0 7.0 0.00 0.02 0.02 80 1014.8
20260504234955 41 127 4.0 9.0 0.01 0.02 0.02 81 1014.8
20260504233954 41 124 4.0 8.0 0.02 0.02 0.02 83 1014.9
20260504232954 41 122 4.0 10.0 0.02 0.02 0.02 83 1014.9
20260504231954 41 10 3.0 7.0 0.02 0.02 0.02 83 1015.1
20260504225954 40 274 1.0 3.0 0.02 0.02 0.02 85 1015.3
20260504224954 41 227 5.0 9.0 0.01 0.01 0.01 79 1015.7
20260504222954 45 124 4.0 8.0 0.00 0.00 0.00 65 1015.4
20260504221954 45 141 3.0 6.0 0.00 0.00 0.00 64 1015.2
20260504215954 46 354 3.0 8.0 0.00 0.00 0.00 69 1015.7
20260504214954 42 271 3.0 9.0 0.00 0.00 0.00 75 1016.1
20260504213954 42 252 5.0 11.0 0.00 0.00 0.00 77 1016.2
20260504212954 41 244 7.0 14.0 0.00 0.00 0.00 76 1016.1
20260504211954 42 253 7.0 14.0 0.00 0.00 0.00 71 1015.8
20260504210954 45 263 9.0 22.0 0.00 0.00 0.00 60 1015.6
20260504205955 51 308 9.0 26.0 0.00 0.00 0.00 44 1014.9
20260504204954 53 318 4.0 9.0 0.00 0.00 0.00 33 1014.4
20260504203954 54 343 3.0 7.0 0.00 0.00 0.00 35 1014.3
20260504202954 52 1 6.0 13.0 0.00 0.00 0.00 42 1014.4
20260504201954 53 2 5.0 13.0 0.00 0.00 0.00 43 1014.6
20260504200954 51 48 6.0 15.0 0.00 0.00 0.00 46 1014.9
20260504195955 50 79 7.0 13.0 0.00 0.00 0.00 48 1015.1
20260504192954 52 1 6.0 15.0 0.00 0.00 0.00 49 1015.5
20260504191954 50 345 5.0 11.0 0.00 0.00 0.00 45 1015.9
20260504190954 51 345 5.0 11.0 0.00 0.00 0.00 43 1015.8
20260504185955 52 329 4.0 12.0 0.00 0.00 0.00 40 1015.9
20260504184954 51 333 4.0 8.0 0.00 0.00 0.00 42 1016.1
20260504183954 51 318 6.0 15.0 0.00 0.00 0.00 44 1016.2
20260504182954 49 353 8.0 16.0 0.00 0.00 0.00 46 1016.3
20260504180954 49 346 7.0 17.0 0.00 0.00 0.00 47 1016.5
20260504175954 50 358 9.0 19.0 0.00 0.00 0.00 48 1016.7
20260504174954 51 339 7.0 18.0 0.00 0.00 0.00 44 1016.6
20260504173953 53 344 6.0 18.0 0.00 0.00 0.00 43 1016.7
20260504172954 51 345 7.0 17.0 0.00 0.00 0.00 47 1016.9
20260504171954 51 340 6.0 13.0 0.00 0.00 0.00 50 1017.0
20260504170954 49 327 6.0 15.0 0.00 0.00 0.00 51 1017.1
20260504150954 45 356 4.0 10.0 0.00 0.00 0.00 52 1017.7
20260504140954 35 0 0.0 3.0 0.00 0.00 0.00 69 1017.9
20260504081954 30 302 1.0 3.0 0.00 0.00 0.00 67 1017.8
20260504045953 38 0 0.0 0.0 0.00 0.00 0.00 53 1018.9
20260504044954 38 0 0.0 0.0 0.00 0.00 0.00 53 1019.0
20260504043954 38 0 0.0 0.0 0.00 0.00 0.00 53 1019.2
20260504042954 40 0 0.0 2.0 0.00 0.00 0.00 50 1019.2
20260504041955 40 302 1.0 2.0 0.00 0.00 0.00 49 1019.2
20260504035954 41 0 0.0 0.0 0.00 0.00 0.00 48 1019.2
20260504034954 43 0 0.0 0.0 0.00 0.00 0.00 44 1019.3
20260504033954 44 0 0.0 0.0 0.00 0.00 0.00 43 1019.3
20260504032953 44 0 0.0 0.0 0.00 0.00 0.00 44 1019.2
20260504031954 44 0 0.0 0.0 0.00 0.00 0.00 43 1019.2
20260504030954 45 0 0.0 0.0 0.00 0.00 0.00 43 1019.2
20260504025954 46 0 0.0 2.0 0.00 0.00 0.00 43 1019.1
20260504024954 47 302 1.0 3.0 0.00 0.00 0.00 42 1019.1
20260504023954 48 293 3.0 8.0 0.00 0.00 0.00 36 1019.0
20260504022955 47 335 2.0 4.0 0.00 0.00 0.00 40 1019.2
20260504021958 46 335 1.0 5.0 0.00 0.00 0.00 41 1019.2
20260504020953 46 0 0.0 0.0 0.00 0.00 0.00 43 1019.0
20260504015954 47 0 0.0 0.0 0.00 0.00 0.00 41 1018.9
20260504014955 47 335 1.0 5.0 0.00 0.00 0.00 41 1018.9
20260504013954 48 335 2.0 5.0 0.00 0.00 0.00 40 1019.0
20260504012957 48 335 1.0 3.0 0.00 0.00 0.00 40 1019.1
20260504011957 49 335 1.0 3.0 0.00 0.00 0.00 40 1019.0
20260504010954 49 335 1.0 3.0 0.00 0.00 0.00 39 1019.2
20260504005953 50 0 0.0 0.0 0.00 0.00 0.00 39 1019.1
20260504004954 50 0 0.0 2.0 0.00 0.00 0.00 39 1019.1